Weather History for Fort Rucker / Ozark, AL

Change the Weather History Date:

Friday, January 24, 2014

  Actual Average (KOZR) Record (KOZR)
Temperature  
Mean Temperature 33 °F -  
Max Temperature 39 °F 58 °F 78 °F (2002)
Min Temperature 27 °F 37 °F 12 °F (2003)
Degree Days  
Heating Degree Days 32    
Moisture  
Dew Point 1 °F    
Average Humidity 26    
Maximum Humidity 42    
Minimum Humidity 15    
Precipitation  
Precipitation 0.00 in - - ()
Sea Level Pressure  
Sea Level Pressure 30.47 in    
Wind  
Wind Speed 9 mph (NNE)    
Max Wind Speed 14 mph    
Max Gust Speed 20 mph    
Visibility 10 miles    
Events      
Averages and records for this station are not official NWS values.
T = Trace of Precipitation, MM = Missing Value Source: NWS Daily Summary

Daily Weather History Graph

Daily Weather History Graph

Search for Another Location

Airport:

Trip Planner

Search our weather history database for the weather conditions in past years. The results will help you decide how hot, cold, wet, or windy it might be!

Date:

Astronomy

Jan. 24, 2014 Rise Set
Actual Time 6:39 AM CST 5:10 PM CST
Civil Twilight 6:13 AM CST 5:36 PM CST
Nautical Twilight 5:44 AM CST 6:05 PM CST
Astronomical Twilight 5:15 AM CST 6:34 PM CST
Moon 12:11 AM CST (1/24) 11:24 AM CST (1/24)
Length of Visible Light 11h 22m
Length of Day
10h 31m
Last Quarter, 44% of the Moon is Illuminated
Jan 24
Last Quarter
Jan 30
New
Feb 6
First Quarter
Feb 14
Full
Feb 22
Last Quarter

Hourly Weather History & Observations

Time (CST) Temp. Windchill Dew Point Humidity Pressure Visibility Wind Dir Wind Speed Gust Speed Precip Events Conditions
12:53 AM 35.1 °F 26.4 °F 10.9 °F 37% 30.52 in 10.0 mi North 12.7 mph - N/A   Overcast
1:53 AM 34.0 °F 25.0 °F 10.9 °F 38% 30.54 in 10.0 mi North 12.7 mph - N/A   Overcast
2:53 AM 32.0 °F 23.6 °F 3.0 °F 29% 30.54 in 10.0 mi NNW 10.4 mph - N/A   Overcast
3:53 AM 30.9 °F 22.2 °F 3.0 °F 31% 30.56 in 10.0 mi North 10.4 mph - N/A   Overcast
4:53 AM 28.9 °F 18.2 °F -0.9 °F 28% 30.55 in 10.0 mi North 13.8 mph - N/A   Overcast
5:53 AM 28.9 °F 18.6 °F -0.9 °F 28% 30.56 in 10.0 mi North 12.7 mph - N/A   Clear
6:53 AM 27.0 °F 18.0 °F -0.9 °F 30% 30.56 in 10.0 mi North 9.2 mph - N/A   Clear
7:53 AM 28.0 °F 19.3 °F -4.0 °F 25% 30.58 in 10.0 mi North 9.2 mph - N/A   Clear
8:53 AM 28.9 °F 19.8 °F -2.9 °F 25% 30.59 in 10.0 mi North 10.4 mph - N/A   Clear
9:53 AM 30.9 °F 23.5 °F -2.9 °F 23% 30.57 in 10.0 mi NE 8.1 mph - N/A   Clear
10:53 AM 35.1 °F 26.9 °F -5.1 °F 18% 30.55 in 10.0 mi ENE 11.5 mph 19.6 mph N/A   Clear
11:53 AM 35.1 °F 29.3 °F -7.1 °F 16% 30.51 in 10.0 mi NE 6.9 mph - N/A   Clear
12:53 PM 37.0 °F 34.5 °F -6.0 °F 16% 30.46 in 10.0 mi ENE 3.5 mph - N/A   Clear
1:53 PM 39.0 °F 34.0 °F -4.0 °F 16% 30.43 in 10.0 mi ENE 6.9 mph - N/A   Scattered Clouds
2:53 PM 39.0 °F 33.4 °F -5.1 °F 15% 30.41 in 10.0 mi NNE 8.1 mph - N/A   Overcast
3:53 PM 37.9 °F 34.4 °F -4.0 °F 17% 30.41 in 10.0 mi NNE 4.6 mph - N/A   Overcast
4:53 PM 37.0 °F 31.6 °F -4.0 °F 17% 30.40 in 10.0 mi North 6.9 mph - N/A   Overcast
5:53 PM 37.0 °F - -2.0 °F 19% 30.39 in 10.0 mi Calm Calm - N/A   Overcast
6:53 PM 37.0 °F - -0.0 °F 21% 30.40 in 10.0 mi Calm Calm - N/A   Overcast
7:53 PM 36.0 °F - 6.1 °F 29% 30.38 in 10.0 mi Calm Calm - N/A   Overcast
8:53 PM 36.0 °F - 7.0 °F 30% 30.36 in 10.0 mi Calm Calm - N/A   Overcast
9:53 PM 36.0 °F - 8.1 °F 31% 30.34 in 10.0 mi Calm Calm - N/A   Overcast
10:53 PM 35.1 °F - 10.9 °F 37% 30.30 in 10.0 mi Calm Calm - N/A   Mostly Cloudy
11:53 PM 32.0 °F 27.5 °F 10.9 °F 42% 30.27 in 10.0 mi South 4.6 mph - N/A   Clear